Sauk Centre, MN

6:37 AM CDT on May 30, 2017 (GMT -0500)
Sauk Centre

Weather History for KD39 - August, 2013

Change the Weather History Date:

Tuesday, August 6, 2013

  Actual Average (KGHW) Record (KGHW)
Temperature  
Mean Temperature 65 °F -  
Max Temperature 79 °F 82 °F 95 °F (1983)
Min Temperature 51 °F 59 °F 35 °F (2001)
Growing Degree Days 15 (Base 50)    
Moisture  
Dew Point 58 °F    
Average Humidity 86    
Maximum Humidity 99    
Minimum Humidity 58    
Precipitation  
Precipitation 0.36 in - - ()
Sea Level Pressure  
Sea Level Pressure 29.79 in    
Wind  
Wind Speed 5 mph (SW)    
Max Wind Speed 29 mph    
Max Gust Speed 36 mph    
Visibility 10 miles    
Events Rain , Thunderstorm    
Averages and records for this station are not official NWS values.
T = Trace of Precipitation, MM = Missing Value Source: NWS Daily Summary

Daily Weather History Graph

Daily Weather History Graph

Search for Another Location

Airport or City:

Trip Planner

Search our weather history database for the weather conditions in past years. The results will help you decide how hot, cold, wet, or windy it might be!

Date:

Astronomy

Aug. 06, 2013 Rise Set
Actual Time 6:09 AM CDT 8:41 PM CDT
Civil Twilight 5:35 AM CDT 9:14 PM CDT
Nautical Twilight 4:53 AM CDT 9:56 PM CDT
Astronomical Twilight 4:05 AM CDT 10:44 PM CDT
Moon 6:04 AM CDT (8/6) 8:11 PM CDT (8/6)
Length of Visible Light 15h 38m
Length of Day
14h 31m
Waning Crescent, 0% of the Moon is Illuminated
Aug 6
Waning Crescent
Aug 6
New
Aug 14
First Quarter
Aug 20
Full
Aug 28
Last Quarter

Hourly Weather History & Observations

Time (CDT) Temp. Dew Point Humidity Pressure Visibility Wind Dir Wind Speed Gust Speed Precip Events Conditions
12:12 AM 54.5 °F 53.4 °F 96% 29.87 in 10.0 mi WSW 3.5 mph - N/A   Clear
12:33 AM 54.5 °F 53.6 °F 97% 29.87 in 10.0 mi WSW 3.5 mph - N/A   Clear
12:53 AM 53.8 °F 53.1 °F 97% 29.86 in 10.0 mi West 3.5 mph - N/A   Clear
1:13 AM 53.2 °F 52.7 °F 98% 29.87 in 7.0 mi West 3.5 mph - N/A   Clear
1:33 AM 53.1 °F 52.7 °F 99% 29.86 in 10.0 mi West 3.5 mph - N/A   Clear
1:53 AM 52.9 °F 52.5 °F 99% 29.84 in 10.0 mi Calm Calm - N/A   Clear
2:12 AM 52.7 °F 52.2 °F 98% 29.84 in 10.0 mi Calm Calm - N/A   Clear
2:33 AM 52.7 °F 51.8 °F 97% 29.83 in 10.0 mi Calm Calm - N/A   Clear
2:52 AM 51.8 °F 50.9 °F 97% 29.85 in 10.0 mi SW 3.5 mph - N/A   Clear
3:13 AM 51.3 °F 50.9 °F 99% 29.84 in 10.0 mi Calm Calm - N/A   Clear
3:32 AM 51.4 °F 50.9 °F 98% 29.83 in 10.0 mi Calm Calm - N/A   Clear
3:53 AM 52.5 °F 51.8 °F 97% 29.82 in 10.0 mi SE 3.5 mph - N/A   Clear
4:13 AM 52.0 °F 51.6 °F 99% 29.82 in 10.0 mi Calm Calm - N/A   Clear
4:33 AM 51.8 °F 51.4 °F 99% 29.81 in 10.0 mi Calm Calm - N/A   Clear
4:52 AM 51.8 °F 51.1 °F 97% 29.81 in 10.0 mi SSE 3.5 mph - N/A   Clear
5:13 AM 52.0 °F 51.6 °F 99% 29.82 in 10.0 mi Calm Calm - N/A   Clear
5:33 AM 52.3 °F 52.0 °F 99% 29.82 in 10.0 mi Calm Calm - N/A   Clear
5:52 AM 52.0 °F 51.4 °F 98% 29.82 in 10.0 mi Calm Calm - N/A   Clear
6:13 AM 52.2 °F 51.8 °F 99% 29.83 in 7.0 mi SSE 3.5 mph - N/A   Clear
6:32 AM 52.7 °F 52.2 °F 98% 29.82 in 10.0 mi Calm Calm - N/A   Clear
6:53 AM 53.6 °F 52.9 °F 97% 29.82 in 10.0 mi Calm Calm - N/A   Clear
7:13 AM 54.5 °F 53.8 °F 97% 29.81 in 10.0 mi Calm Calm - N/A   Clear
7:32 AM 55.4 °F 54.5 °F 97% 29.81 in 10.0 mi SE 3.5 mph - N/A   Clear
7:53 AM 56.5 °F 55.4 °F 96% 29.80 in 10.0 mi SE 4.6 mph - N/A   Clear
8:13 AM 57.4 °F 55.9 °F 95% 29.81 in 10.0 mi SSE 4.6 mph - N/A   Clear
8:32 AM 58.5 °F 56.5 °F 93% 29.80 in 10.0 mi SE 5.8 mph - N/A   Scattered Clouds
8:53 AM 59.9 °F 57.4 °F 91% 29.80 in 10.0 mi SSE 8.1 mph - N/A   Overcast
9:12 AM 60.3 °F 57.4 °F 90% 29.79 in 10.0 mi SE 9.2 mph - N/A   Overcast
9:33 AM 61.7 °F 57.6 °F 86% 29.79 in 10.0 mi SSE 9.2 mph - N/A   Mostly Cloudy
9:53 AM 60.6 °F 57.4 °F 89% 29.81 in 5.0 mi NNE 6.9 mph - 0.07 in Rain Heavy Rain
10:12 AM 60.4 °F 58.5 °F 93% 29.79 in 10.0 mi ESE 6.9 mph - N/A   Overcast
10:33 AM 63.1 °F 60.1 °F 90% 29.78 in 10.0 mi ESE 8.1 mph - N/A   Overcast
10:53 AM 65.5 °F 61.3 °F 86% 29.78 in 10.0 mi ESE 8.1 mph - N/A   Mostly Cloudy
11:12 AM 66.4 °F 61.0 °F 83% 29.78 in 10.0 mi ESE 8.1 mph - N/A   Scattered Clouds
11:33 AM 68.4 °F 62.2 °F 81% 29.78 in 10.0 mi ESE 11.5 mph - N/A   Mostly Cloudy
11:53 AM 70.3 °F 62.8 °F 77% 29.77 in 10.0 mi ESE 10.4 mph - N/A   Mostly Cloudy
12:12 PM 71.8 °F 63.5 °F 75% 29.76 in 10.0 mi SE 11.5 mph - N/A   Scattered Clouds
12:33 PM 72.5 °F 64.0 °F 75% 29.76 in 10.0 mi ESE 9.2 mph - N/A   Scattered Clouds
12:52 PM 75.6 °F 64.9 °F 69% 29.76 in 10.0 mi South 10.4 mph - N/A   Mostly Cloudy
1:13 PM - - N/A% 29.75 in 10.0 mi SSE 10.4 mph - N/A   Mostly Cloudy
1:33 PM 76.3 °F 63.7 °F 65% 29.75 in 10.0 mi SSW 10.4 mph - N/A   Mostly Cloudy
1:53 PM 77.9 °F 63.1 °F 60% 29.75 in 10.0 mi SSW 12.7 mph 18.4 mph N/A   Mostly Cloudy
2:13 PM 78.8 °F 63.3 °F 59% 29.75 in 10.0 mi SW 10.4 mph - N/A   Mostly Cloudy
2:32 PM 78.8 °F 63.1 °F 59% 29.75 in 10.0 mi SW 11.5 mph 17.3 mph N/A   Mostly Cloudy
2:53 PM 79.0 °F 63.3 °F 59% 29.74 in 10.0 mi WSW 11.5 mph 18.4 mph N/A   Mostly Cloudy
3:12 PM 79.5 °F 63.3 °F 58% 29.74 in 10.0 mi WSW 12.7 mph 17.3 mph N/A   Mostly Cloudy
3:33 PM 79.2 °F 63.1 °F 58% 29.74 in 10.0 mi SW 9.2 mph - N/A   Scattered Clouds
3:52 PM 78.8 °F 63.1 °F 59% 29.74 in 10.0 mi WSW 12.7 mph - N/A   Mostly Cloudy
4:13 PM 77.5 °F 62.6 °F 60% 29.73 in 10.0 mi WSW 9.2 mph 16.1 mph N/A   Mostly Cloudy
4:33 PM 75.7 °F 63.5 °F 66% 29.72 in 10.0 mi WSW 6.9 mph - N/A   Scattered Clouds
4:50 PM 75.2 °F 63.9 °F 68% 29.73 in 10.0 mi West 5.8 mph - N/A   Clear
5:13 PM 75.6 °F 64.0 °F 67% 29.73 in 10.0 mi WNW 4.6 mph - N/A   Clear
5:33 PM 77.5 °F 64.0 °F 63% 29.72 in 10.0 mi NW 4.6 mph - N/A   Clear
5:53 PM 76.1 °F 64.6 °F 67% 29.73 in 10.0 mi WNW 9.2 mph - N/A   Scattered Clouds
6:12 PM 69.4 °F 57.9 °F 67% 29.69 in 5.0 mi North 9.2 mph 15.0 mph 0.05 in Rain Light Rain
6:33 PM 64.8 °F 58.3 °F 79% 29.75 in 5.0 mi SW 10.4 mph - 0.12 in Rain , Thunderstorm Light Thunderstorms and Rain
6:52 PM 64.0 °F 58.8 °F 83% 29.80 in 5.0 mi SW 28.8 mph 35.7 mph 0.24 in Rain , Thunderstorm Rain
7:13 PM 61.3 °F 57.7 °F 88% 29.73 in 7.0 mi WSW 5.8 mph - 0.04 in Rain , Thunderstorm Rain
7:30 PM 61.2 °F 58.6 °F 91% 29.75 in 10.0 mi West 9.2 mph - 0.04 in   Mostly Cloudy
7:53 PM 61.5 °F 59.0 °F 91% 29.73 in 10.0 mi NNW 8.1 mph - 0.05 in Rain Light Rain
8:12 PM 63.1 °F 61.0 °F 93% 29.77 in 10.0 mi NW 11.5 mph 16.1 mph N/A   Scattered Clouds
8:33 PM 64.6 °F 61.3 °F 89% 29.76 in 10.0 mi NNE 4.6 mph - N/A   Scattered Clouds
8:52 PM 63.0 °F 60.8 °F 93% 29.76 in 10.0 mi South 4.6 mph - N/A   Clear
9:13 PM 61.7 °F 60.8 °F 97% 29.78 in 10.0 mi NNW 3.5 mph - N/A   Clear
9:33 PM 61.7 °F 60.4 °F 96% 29.80 in 10.0 mi NW 3.5 mph - N/A   Clear
9:53 PM 62.1 °F 61.0 °F 96% 29.80 in 10.0 mi NW 5.8 mph - N/A   Clear
10:13 PM 60.6 °F 59.5 °F 96% 29.81 in 10.0 mi WNW 4.6 mph - N/A   Clear
10:33 PM 61.2 °F 60.3 °F 97% 29.81 in 10.0 mi NW 4.6 mph - N/A   Clear
10:53 PM 61.2 °F 60.4 °F 97% 29.82 in 10.0 mi NW 5.8 mph - N/A   Clear
11:13 PM 61.7 °F 60.3 °F 95% 29.82 in 10.0 mi NW 6.9 mph - N/A   Clear
11:33 PM 61.9 °F 60.3 °F 94% 29.82 in 10.0 mi NW 9.2 mph - N/A   Clear
11:53 PM 61.9 °F 60.4 °F 95% 29.84 in 10.0 mi NW 10.4 mph - N/A   Scattered Clouds